Regional Weather Roundup
Issued by NWS

Home | Current Version | Previous Version | Text Only | Print | Product List | Glossary On
Versions: 1 2 3 4 5 6 7 8 9 10 11 12 13 14 15 16 17 18 19 20 21 22 23 24 25 26 27 28 29 30 31 32 33 34 35 36 37 38 39 40 41 42 43 44 45 46 47 48 49 50
000
ASUS43 KDMX 300907
RWRIA

WEATHER ROUNDUP FOR IOWA
NATIONAL WEATHER SERVICE DES MOINES IA
400 AM CDT TUE JUN 30 2015

NOTE: "FAIR" INDICATES FEW OR NO CLOUDS BELOW 12,000 FEET WITH NO
SIGNIFICANT WEATHER AND/OR OBSTRUCTIONS TO VISIBILITY.

* - THESE STATIONS ARE NOT NWS STATIONS...THUS NOT UNDER NWS
QUALITY CONTROL.  THEY ALSO DO NOT REPORT WEATHER SUCH
AS PRECIPITATION OR FOG.

IAZ001>003-012>014-020>022-031>034-043>046-301000-
   NORTHWEST IOWA

CITY           SKY/WX    TMP DP  RH WIND       PRES   REMARKS
CARROLL *      CLOUDY    64  63  94 W7        29.89S
CHEROKEE *     PTCLDY    63  63 100 CALM      29.90S FOG
DENISON *      CLOUDY    63  61  94 CALM      29.88F
LE MARS *        N/A     61  61 100 CALM      29.92R FOG
ORANGE CITY *  CLEAR     66  61  82 N5        29.91S
SHELDON *      CLOUDY    61  61 100 NW5       29.90S FOG
SIOUX CITY     PTCLDY    66  59  78 NW5       29.90S
SPENCER        CLOUDY    61  59  93 W6        29.90S FOG
STORM LAKE *   CLEAR     64  61  88 N7        29.91S
$$

IAZ055>058-069>071-079>083-090>094-301000-
   SOUTHWEST IOWA

CITY           SKY/WX    TMP DP  RH WIND       PRES   REMARKS
ATLANTIC *     CLOUDY    63  61  94 CALM      29.90S
AUDUBON *      CLEAR     64  61  88 NW3       29.91S
CLARINDA *     PTCLDY    63  63 100 CALM      29.92S
COUNCIL BLFS * CLOUDY    66  63  88 CALM      29.91S
CRESTON *      CLEAR     64  61  88 W7        29.90S
HARLAN  *      CLEAR     61  61 100 CALM      29.93F FOG
LAMONI         PTCLDY    67  62  84 W7        29.89S
RED OAK *      CLOUDY    64  64 100 S5        29.91S
SHENANDOAH *   CLOUDY    64  63  94 CALM      29.91F
$$

IAZ047>049-059>061-072>074-084-301000-
   CENTRAL IOWA

CITY           SKY/WX    TMP DP  RH WIND       PRES   REMARKS
AMES           CLEAR     67  62  84 NW8       29.85S
ANKENY *       CLEAR     66  64  94 W8        29.85F
CHARITON *     CLOUDY    66  63  88 W7        29.87S
DES MOINES     CLOUDY    68  62  81 W6        29.86S
GRINNELL*      CLEAR     64  63  94 W3        29.85S
KNOXVILLE *    CLEAR     66  63  88 W7        29.84F
MARSHALLTOWN   CLEAR     64  62  93 W5        29.83S
PELLA *        CLEAR     66  66 100 CALM      29.86S
PERRY *          N/A     66  63  88 NW5       29.87S
$$

IAZ004>006-015-016-023>025-035-036-301000-
   NORTH CENTRAL IOWA

CITY           SKY/WX    TMP DP  RH WIND       PRES   REMARKS
ALGONA *       CLEAR     64  63  94 NW7       29.87S
CLARION *      CLEAR     63  61  94 NW6       29.86S FOG
ESTHERVILLE    PTCLDY    62  61  96 NW7       29.88S
FORT DODGE *   CLEAR     64  59  82 CALM      29.88S
MASON CITY     CLEAR     65  63  93 NW10      29.86S
FOREST CITY *  CLEAR     63  63 100 NW6       29.86R
IOWA FALLS *     N/A     63  61  94 W7        29.86R
$$

IAZ007>011-017>019-026>030-037>042-050>054-066-301000-
   NORTHEAST IOWA

CITY           SKY/WX    TMP DP  RH WIND       PRES   REMARKS
CEDAR RAPIDS   CLEAR     60  60 100 SW5       29.81F
CHARLES CITY * CLEAR     59  59 100 N5        29.84S
CLINTON *      CLEAR     63  57  82 NW7       29.83S
DECORAH *        N/A    N/A N/A N/A MISG        N/A
DUBUQUE        CLEAR     61  57  87 NW8       29.81S
MONTICELLO *   PTCLDY    61 N/A N/A CALM      29.81F HAZE
OELWEIN *        N/A    N/A N/A N/A NE7       29.84R
WATERLOO       CLEAR     61  59  93 N3        29.81F
$$

IAZ064-065-067-068-078-301000-
   EAST CENTRAL IOWA

CITY           SKY/WX    TMP DP  RH WIND       PRES   REMARKS
DAVENPORT      CLEAR     61  59  93 W3        29.81S FOG
IOWA CITY      CLEAR     62  61  96 CALM      29.82F
MT. PLEASANT * CLEAR     66  63  88 SW5       29.84S FOG
MUSCATINE *    PTCLDY    64  63  94 CALM      29.82S
QUAD CITIES    CLEAR     62  60  93 CALM      29.80F
$$

IAZ062-063-075>077-085>089-095>099-301000-
   SOUTHEAST IOWA

CITY           SKY/WX    TMP DP  RH WIND       PRES   REMARKS
BURLINGTON     CLEAR     65  65 100 CALM      29.83S
FAIRFIELD *    CLEAR     64  63  94 W5        29.84F
FORT MADISON * CLEAR     64  64 100 W3        29.85S
KEOKUK *       CLEAR     66  64  94 W5        29.84S
OSKALOOSA *      N/A     64  63  94 W3        29.85S
CENTERVILLE *  CLEAR     66  63  88 W8        29.88F
OTTUMWA        CLEAR     64  64 100 SW5       29.83F
WASHINGTON *   CLEAR     63  63 100 W6        29.84F FOG
$$

ABBREVIATIONS USED IN REMARKS
   TC - TEMPERATURES IN CELSIUS
  WCI - WIND CHILL INDEX
   HX - HEAT INDEX
  VSB - VISIBILITY
$$




USA.gov is the U.S. government's official web portal to all federal, state and local government web resources and services.